Regional Weather Roundup
Issued by NWS

Home | Current Version | Previous Version | Graphics & Text | Print | Product List | Glossary On
Versions: 1 2 3 4 5 6 7 8 9 10 11 12 13 14 15 16 17 18 19 20 21 22 23 24 25 26 27 28 29 30 31 32 33 34 35 36 37 38 39 40 41 42 43 44 45 46 47 48 49 50
000
ASUS43 KBIS 231010
RWRND

NORTH DAKOTA REGIONAL WEATHER ROUNDUP
NATIONAL WEATHER SERVICE BISMARCK ND
500 AM CDT TUE MAY 23 2017

NOTE: "FAIR" INDICATES FEW OR NO CLOUDS BELOW 12,000 FEET WITH NO
SIGNIFICANT WEATHER AND/OR OBSTRUCTIONS TO VISIBILITY.


NDZ001>003-009>011-017-231100-
NORTHWEST NORTH DAKOTA

CITY           SKY/WX    TMP DP  RH WIND       PRES   REMARKS
WILLISTON      FAIR      36  32  85 CALM      30.16S
MINOT          FAIR      45  36  70 NW10      30.10S
MINOT AFB      CLEAR     42  37  82 NW9       30.11R
$$

NDZ018>021-031>035-040>046-231100-
SOUTHWEST NORTH DAKOTA

CITY           SKY/WX    TMP DP  RH WIND       PRES   REMARKS
BISMARCK       CLOUDY    53  37  54 N16G23    30.05S
DICKINSON      FAIR      36  32  85 NW8       30.12S
GARRISON         N/A     40  34  79 NW12      30.10S
HETTINGER ARPT CLEAR     38  33  82 N8        30.14S
$$

NDZ004>008-012>016-024-026-027-054-231100-
NORTHEAST NORTH DAKOTA

CITY           SKY/WX    TMP DP  RH WIND       PRES   REMARKS
GRAND FORKS    LGT RAIN  49  46  90 N15       29.94S
GRND FRKS AFB  CLOUDY    46  46 100 NE15      29.96R
DEVILS LAKE    CLOUDY    45  41  86 N14       30.03R
$$

NDZ022-023-025-028>030-036>039-047>053-231100-
SOUTHEAST NORTH DAKOTA

CITY           SKY/WX    TMP DP  RH WIND       PRES   REMARKS
FARGO          CLOUDY    48  46  93 N15       29.90S
JAMESTOWN      CLOUDY    46  43  89 N16       29.96R
$$




USA.gov is the U.S. government's official web portal to all federal, state and local government web resources and services.